Time,TemperatureF,DewpointF,PressureIn,WindDirection,WindDirectionDegrees,WindSpeedMPH,WindSpeedGustMPH,Humidity,HourlyPrecipIn,Conditions,Clouds,dailyrainin,SoftwareType,DateUTC
2013-03-29 00:03:00,24.4,19.1,30.33,SW,219,0.0,0.0,80,0.00,,,0.00,Wunderground v.1.15,2013-03-29 05:03:00,
2013-03-29 00:08:00,24.8,19.5,30.33,SW,218,0.0,0.0,80,0.00,,,0.00,Wunderground v.1.15,2013-03-29 05:08:00,
2013-03-29 00:13:00,25.5,19.9,30.33,SW,218,0.0,0.0,79,0.00,,,0.00,Wunderground v.1.15,2013-03-29 05:13:00,
2013-03-29 00:19:00,26.2,20.9,30.33,SW,219,0.0,0.0,80,0.00,,,0.00,Wunderground v.1.15,2013-03-29 05:19:00,
2013-03-29 00:25:00,26.7,21.7,30.33,SW,218,0.0,0.0,81,0.00,,,0.00,Wunderground v.1.15,2013-03-29 05:25:00,
2013-03-29 00:30:00,27.2,21.8,30.33,SW,219,0.0,0.0,80,0.00,,,0.00,Wunderground v.1.15,2013-03-29 05:30:00,
2013-03-29 00:35:00,27.5,21.8,30.33,SW,219,0.0,0.0,79,0.00,,,0.00,Wunderground v.1.15,2013-03-29 05:35:00,
2013-03-29 00:40:00,28.0,22.6,30.33,SW,218,0.0,0.0,80,0.00,,,0.00,Wunderground v.1.15,2013-03-29 05:40:00,
2013-03-29 00:45:00,28.2,22.8,30.33,SW,218,0.0,0.0,80,0.00,,,0.00,Wunderground v.1.15,2013-03-29 05:45:00,
2013-03-29 00:50:00,28.3,22.3,30.33,SW,218,0.0,0.0,78,0.00,,,0.00,Wunderground v.1.15,2013-03-29 05:50:00,
2013-03-29 00:57:00,28.5,22.2,30.33,SW,218,0.0,0.0,77,0.00,,,0.00,Wunderground v.1.15,2013-03-29 05:57:00,
2013-03-29 01:03:00,28.6,22.3,30.33,SW,218,0.0,0.0,77,0.00,,,0.00,Wunderground v.1.15,2013-03-29 06:03:00,
2013-03-29 01:08:00,28.6,22.0,30.33,SW,218,0.0,0.0,76,0.00,,,0.00,Wunderground v.1.15,2013-03-29 06:08:00,
2013-03-29 01:14:00,28.6,22.0,30.33,SW,218,0.0,0.0,76,0.00,,,0.00,Wunderground v.1.15,2013-03-29 06:14:00,
2013-03-29 01:19:00,28.8,22.2,30.33,SW,218,0.0,0.0,76,0.00,,,0.00,Wunderground v.1.15,2013-03-29 06:19:00,
2013-03-29 01:25:00,28.8,22.2,30.33,SW,218,0.0,0.0,76,0.00,,,0.00,Wunderground v.1.15,2013-03-29 06:25:00,
2013-03-29 01:30:00,28.8,21.9,30.33,SW,218,0.0,0.0,75,0.00,,,0.00,Wunderground v.1.15,2013-03-29 06:30:00,
2013-03-29 01:35:00,28.8,21.9,30.33,SW,218,0.0,0.0,75,0.00,,,0.00,Wunderground v.1.15,2013-03-29 06:35:00,
2013-03-29 01:42:00,28.8,21.9,30.33,SW,218,0.0,0.0,75,0.00,,,0.00,Wunderground v.1.15,2013-03-29 06:42:00,
2013-03-29 01:47:00,28.7,21.8,30.33,SW,218,0.0,0.0,75,0.00,,,0.00,Wunderground v.1.15,2013-03-29 06:47:00,
2013-03-29 01:53:00,28.8,21.9,30.33,SW,219,0.0,0.0,75,0.00,,,0.00,Wunderground v.1.15,2013-03-29 06:53:00,
2013-03-29 01:58:00,28.9,22.6,30.33,SW,218,0.0,0.0,77,0.00,,,0.00,Wunderground v.1.15,2013-03-29 06:58:00,
2013-03-29 02:03:00,29.1,23.1,30.33,SW,218,0.0,0.0,78,0.00,,,0.00,Wunderground v.1.15,2013-03-29 07:03:00,
2013-03-29 02:09:00,29.3,23.6,30.33,SW,219,0.0,0.0,79,0.00,,,0.00,Wunderground v.1.15,2013-03-29 07:09:00,
2013-03-29 02:14:00,29.4,24.3,30.33,SW,218,0.0,0.0,81,0.00,,,0.00,Wunderground v.1.15,2013-03-29 07:14:00,
2013-03-29 02:19:00,29.6,23.9,30.32,SW,218,0.0,0.0,79,0.00,,,0.00,Wunderground v.1.15,2013-03-29 07:19:00,
2013-03-29 02:25:00,29.8,24.1,30.32,SW,219,0.0,0.0,79,0.00,,,0.00,Wunderground v.1.15,2013-03-29 07:25:00,
2013-03-29 02:30:00,29.8,24.1,30.32,SW,218,0.0,0.0,79,0.00,,,0.00,Wunderground v.1.15,2013-03-29 07:30:00,
2013-03-29 02:36:00,29.9,24.2,30.32,SW,218,0.0,0.0,79,0.00,,,0.00,Wunderground v.1.15,2013-03-29 07:36:00,
2013-03-29 02:42:00,30.0,25.2,30.32,SW,218,0.0,0.0,82,0.00,,,0.00,Wunderground v.1.15,2013-03-29 07:42:00,
2013-03-29 02:47:00,30.0,25.2,30.32,SW,219,0.0,0.0,82,0.00,,,0.00,Wunderground v.1.15,2013-03-29 07:47:00,
2013-03-29 02:53:00,30.0,23.7,30.32,SW,219,0.0,0.0,77,0.00,,,0.00,Wunderground v.1.15,2013-03-29 07:53:00,
2013-03-29 02:58:00,29.9,24.5,30.32,SW,219,0.0,0.0,80,0.00,,,0.00,Wunderground v.1.15,2013-03-29 07:58:00,
2013-03-29 03:03:00,29.6,22.6,30.32,SW,219,0.0,0.0,75,0.00,,,0.00,Wunderground v.1.15,2013-03-29 08:03:00,
2013-03-29 03:09:00,29.4,22.1,30.32,SW,218,0.0,0.0,74,0.00,,,0.00,Wunderground v.1.15,2013-03-29 08:09:00,
2013-03-29 03:14:00,29.3,22.0,30.32,SW,218,0.0,0.0,74,0.00,,,0.00,Wunderground v.1.15,2013-03-29 08:14:00,
2013-03-29 03:20:00,29.3,22.4,30.32,SW,218,0.0,0.0,75,0.00,,,0.00,Wunderground v.1.15,2013-03-29 08:20:00,
2013-03-29 03:26:00,29.2,22.6,30.32,SW,218,0.0,0.0,76,0.00,,,0.00,Wunderground v.1.15,2013-03-29 08:26:00,
2013-03-29 03:32:00,29.1,22.5,30.32,SW,219,0.0,0.0,76,0.00,,,0.00,Wunderground v.1.15,2013-03-29 08:32:00,
2013-03-29 03:37:00,28.9,22.6,30.32,SW,218,0.0,0.0,77,0.00,,,0.00,Wunderground v.1.15,2013-03-29 08:37:00,
2013-03-29 03:42:00,28.7,22.7,30.32,SW,218,0.0,0.0,78,0.00,,,0.00,Wunderground v.1.15,2013-03-29 08:42:00,
2013-03-29 03:48:00,28.2,21.9,30.32,SW,218,0.0,0.0,77,0.00,,,0.00,Wunderground v.1.15,2013-03-29 08:48:00,
2013-03-29 03:54:00,27.8,21.2,30.32,SW,218,0.0,0.0,76,0.00,,,0.00,Wunderground v.1.15,2013-03-29 08:54:00,
2013-03-29 03:59:00,27.8,21.2,30.32,SW,218,0.0,0.0,76,0.00,,,0.00,Wunderground v.1.15,2013-03-29 08:59:00,
2013-03-29 04:04:00,27.9,21.9,30.31,SW,219,0.0,0.0,78,0.00,,,0.00,Wunderground v.1.15,2013-03-29 09:04:00,
2013-03-29 04:10:00,28.0,22.0,30.31,SW,218,0.0,0.0,78,0.00,,,0.00,Wunderground v.1.15,2013-03-29 09:10:00,
2013-03-29 04:15:00,28.2,22.5,30.31,SW,218,0.0,0.0,79,0.00,,,0.00,Wunderground v.1.15,2013-03-29 09:15:00,
2013-03-29 04:20:00,28.3,22.6,30.31,SW,219,0.0,0.0,79,0.00,,,0.00,Wunderground v.1.15,2013-03-29 09:20:00,
2013-03-29 04:26:00,28.5,22.5,30.31,SW,218,0.0,0.0,78,0.00,,,0.00,Wunderground v.1.15,2013-03-29 09:26:00,
2013-03-29 04:32:00,28.6,23.2,30.30,SW,218,0.0,0.0,80,0.00,,,0.00,Wunderground v.1.15,2013-03-29 09:32:00,
2013-03-29 04:37:00,28.4,22.7,30.30,SW,218,0.0,0.0,79,0.00,,,0.00,Wunderground v.1.15,2013-03-29 09:37:00,
2013-03-29 04:43:00,28.2,23.1,30.30,SW,218,0.0,0.0,81,0.00,,,0.00,Wunderground v.1.15,2013-03-29 09:43:00,
2013-03-29 04:48:00,28.1,22.7,30.30,SW,219,0.0,0.0,80,0.00,,,0.00,Wunderground v.1.15,2013-03-29 09:48:00,
2013-03-29 04:54:00,28.3,23.2,30.30,SW,220,0.0,0.0,81,0.00,,,0.00,Wunderground v.1.15,2013-03-29 09:54:00,
2013-03-29 05:00:00,28.6,23.5,30.30,WSW,239,0.0,0.0,81,0.00,,,0.00,Wunderground v.1.15,2013-03-29 10:00:00,
2013-03-29 05:06:00,28.9,23.8,30.30,WSW,239,0.0,0.0,81,0.00,,,0.00,Wunderground v.1.15,2013-03-29 10:06:00,
2013-03-29 05:12:00,29.5,24.1,30.29,East,96,0.0,0.0,80,0.00,,,0.00,Wunderground v.1.15,2013-03-29 10:12:00,
2013-03-29 05:17:00,30.1,24.4,30.29,South,186,0.0,0.0,79,0.00,,,0.00,Wunderground v.1.15,2013-03-29 10:17:00,
2013-03-29 05:23:00,30.4,24.7,30.29,SW,227,0.0,0.0,79,0.00,,,0.00,Wunderground v.1.15,2013-03-29 10:23:00,
2013-03-29 05:28:00,30.5,24.8,30.29,SW,215,0.0,0.0,79,0.00,,,0.00,Wunderground v.1.15,2013-03-29 10:28:00,
2013-03-29 05:33:00,30.7,24.7,30.29,SE,144,0.0,1.0,78,0.00,,,0.00,Wunderground v.1.15,2013-03-29 10:33:00,
2013-03-29 05:39:00,30.9,24.8,30.29,SSW,201,0.0,1.0,78,0.00,,,0.00,Wunderground v.1.15,2013-03-29 10:39:00,
2013-03-29 05:44:00,31.1,25.0,30.29,South,173,0.0,3.0,78,0.00,,,0.00,Wunderground v.1.15,2013-03-29 10:44:00,
2013-03-29 05:49:00,31.4,25.0,30.29,SSW,201,0.0,3.0,77,0.00,,,0.00,Wunderground v.1.15,2013-03-29 10:49:00,
2013-03-29 05:55:00,31.6,25.2,30.28,South,185,0.0,2.0,77,0.00,,,0.00,Wunderground v.1.15,2013-03-29 10:55:00,
2013-03-29 06:00:00,31.7,25.3,30.29,South,189,0.0,1.0,77,0.00,,,0.00,Wunderground v.1.15,2013-03-29 11:00:00,
2013-03-29 06:06:00,31.7,25.3,30.29,SSW,205,0.0,1.0,77,0.00,,,0.00,Wunderground v.1.15,2013-03-29 11:06:00,
2013-03-29 06:12:00,31.9,25.5,30.29,SW,224,0.0,0.0,77,0.00,,,0.00,Wunderground v.1.15,2013-03-29 11:12:00,
2013-03-29 06:18:00,31.9,25.8,30.28,SSW,199,0.0,0.0,78,0.00,,,0.00,Wunderground v.1.15,2013-03-29 11:18:00,
2013-03-29 06:23:00,32.0,25.9,30.28,SW,219,0.0,1.0,78,0.00,,,0.00,Wunderground v.1.15,2013-03-29 11:23:00,
2013-03-29 06:29:00,32.0,25.9,30.29,SSW,201,0.0,1.0,78,0.00,,,0.00,Wunderground v.1.15,2013-03-29 11:29:00,
2013-03-29 06:35:00,32.1,26.0,30.28,SSW,201,0.0,0.0,78,0.00,,,0.00,Wunderground v.1.15,2013-03-29 11:35:00,
2013-03-29 06:40:00,32.1,26.3,30.28,WSW,249,0.0,0.0,79,0.00,,,0.00,Wunderground v.1.15,2013-03-29 11:40:00,
2013-03-29 06:45:00,32.0,26.2,30.28,WSW,249,0.0,0.0,79,0.00,,,0.00,Wunderground v.1.15,2013-03-29 11:45:00,
2013-03-29 06:51:00,31.8,26.0,30.28,WSW,246,0.0,0.0,79,0.00,,,0.00,Wunderground v.1.15,2013-03-29 11:51:00,
2013-03-29 06:57:00,31.6,26.1,30.28,SW,223,0.0,1.0,80,0.00,,,0.00,Wunderground v.1.15,2013-03-29 11:57:00,
2013-03-29 07:03:00,31.3,25.8,30.28,WSW,256,0.0,0.0,80,0.00,,,0.00,Wunderground v.1.15,2013-03-29 12:03:00,
2013-03-29 07:09:00,31.0,26.1,30.28,WSW,256,0.0,0.0,82,0.00,,,0.00,Wunderground v.1.15,2013-03-29 12:09:00,
2013-03-29 07:14:00,30.8,26.0,30.28,West,278,0.0,0.0,82,0.00,,,0.00,Wunderground v.1.15,2013-03-29 12:14:00,
2013-03-29 07:19:00,30.6,25.8,30.28,West,263,0.0,0.0,82,0.00,,,0.00,Wunderground v.1.15,2013-03-29 12:19:00,
2013-03-29 07:24:00,30.2,25.7,30.28,West,263,0.0,0.0,83,0.00,,,0.00,Wunderground v.1.15,2013-03-29 12:24:00,
2013-03-29 07:30:00,29.6,25.4,30.29,West,264,0.0,0.0,84,0.00,,,0.00,Wunderground v.1.15,2013-03-29 12:30:00,
2013-03-29 07:36:00,29.2,25.3,30.29,West,263,0.0,0.0,85,0.00,,,0.00,Wunderground v.1.15,2013-03-29 12:36:00,
2013-03-29 07:42:00,29.0,25.3,30.29,West,263,0.0,0.0,86,0.00,,,0.00,Wunderground v.1.15,2013-03-29 12:42:00,
2013-03-29 07:47:00,29.0,25.3,30.29,West,264,0.0,0.0,86,0.00,,,0.00,Wunderground v.1.15,2013-03-29 12:47:00,
2013-03-29 07:52:00,28.9,25.2,30.28,West,263,0.0,0.0,86,0.00,,,0.00,Wunderground v.1.15,2013-03-29 12:52:00,
2013-03-29 07:57:00,28.8,25.1,30.28,West,263,0.0,0.0,86,0.00,,,0.00,Wunderground v.1.15,2013-03-29 12:57:00,
2013-03-29 08:03:00,29.1,25.7,30.28,West,263,0.0,0.0,87,0.00,,,0.00,Wunderground v.1.15,2013-03-29 13:03:00,
2013-03-29 08:08:00,29.9,26.2,30.28,SW,233,0.0,0.0,86,0.00,,,0.00,Wunderground v.1.15,2013-03-29 13:08:00,
2013-03-29 08:13:00,30.8,26.5,30.28,SW,233,0.0,0.0,84,0.00,,,0.00,Wunderground v.1.15,2013-03-29 13:13:00,
2013-03-29 08:18:00,31.9,27.0,30.28,SW,233,0.0,0.0,82,0.00,,,0.00,Wunderground v.1.15,2013-03-29 13:18:00,
2013-03-29 08:24:00,32.9,27.7,30.28,SW,233,0.0,0.0,81,0.00,,,0.00,Wunderground v.1.15,2013-03-29 13:24:00,
2013-03-29 08:29:00,33.9,28.1,30.28,SW,232,0.0,0.0,79,0.00,,,0.00,Wunderground v.1.15,2013-03-29 13:29:00,
2013-03-29 08:34:00,34.6,28.4,30.28,SW,233,0.0,0.0,78,0.00,,,0.00,Wunderground v.1.15,2013-03-29 13:34:00,
2013-03-29 08:40:00,35.3,28.8,30.28,SE,127,0.0,0.0,77,0.00,,,0.00,Wunderground v.1.15,2013-03-29 13:40:00,
2013-03-29 08:45:00,35.7,28.6,30.28,ESE,123,0.0,1.0,75,0.00,,,0.00,Wunderground v.1.15,2013-03-29 13:45:00,
2013-03-29 08:51:00,36.1,28.9,30.28,SSW,197,0.0,0.0,75,0.00,,,0.00,Wunderground v.1.15,2013-03-29 13:51:00,
2013-03-29 08:56:00,36.5,29.0,30.28,SSW,198,0.0,0.0,74,0.00,,,0.00,Wunderground v.1.15,2013-03-29 13:56:00,
2013-03-29 09:02:00,37.1,29.2,30.28,South,175,0.0,3.0,73,0.00,,,0.00,Wunderground v.1.15,2013-03-29 14:02:00,
2013-03-29 09:07:00,37.4,29.2,30.28,ESE,119,1.0,3.0,72,0.00,,,0.00,Wunderground v.1.15,2013-03-29 14:07:00,
2013-03-29 09:13:00,37.8,29.6,30.28,SSW,211,1.0,2.0,72,0.00,,,0.00,Wunderground v.1.15,2013-03-29 14:13:00,
2013-03-29 09:19:00,38.4,29.8,30.28,SSE,154,0.0,3.0,71,0.00,,,0.00,Wunderground v.1.15,2013-03-29 14:19:00,
2013-03-29 09:24:00,38.7,30.1,30.27,SSE,156,1.0,4.0,71,0.00,,,0.00,Wunderground v.1.15,2013-03-29 14:24:00,
2013-03-29 09:29:00,39.1,30.1,30.27,South,190,2.0,4.0,70,0.00,,,0.00,Wunderground v.1.15,2013-03-29 14:29:00,
2013-03-29 09:34:00,39.3,30.0,30.27,ESE,119,2.0,3.0,69,0.00,,,0.00,Wunderground v.1.15,2013-03-29 14:34:00,
2013-03-29 09:40:00,39.5,30.5,30.27,East,83,2.0,2.0,70,0.00,,,0.00,Wunderground v.1.15,2013-03-29 14:40:00,
2013-03-29 09:45:00,39.7,30.4,30.27,ENE,74,2.0,4.0,69,0.00,,,0.00,Wunderground v.1.15,2013-03-29 14:45:00,
2013-03-29 09:50:00,39.8,30.5,30.27,ESE,108,2.0,2.0,69,0.00,,,0.00,Wunderground v.1.15,2013-03-29 14:50:00,
2013-03-29 09:56:00,40.5,31.1,30.27,SSE,154,1.0,2.0,69,0.00,,,0.00,Wunderground v.1.15,2013-03-29 14:56:00,
2013-03-29 10:02:00,41.2,31.4,30.26,East,97,1.0,4.0,68,0.00,,,0.00,Wunderground v.1.15,2013-03-29 15:02:00,
2013-03-29 10:07:00,41.8,31.6,30.26,ESE,110,1.0,4.0,67,0.00,,,0.00,Wunderground v.1.15,2013-03-29 15:07:00,
2013-03-29 10:12:00,42.1,31.6,30.26,SSE,159,1.0,4.0,66,0.00,,,0.00,Wunderground v.1.15,2013-03-29 15:12:00,
2013-03-29 10:18:00,42.9,31.9,30.26,East,96,1.0,4.0,65,0.00,,,0.00,Wunderground v.1.15,2013-03-29 15:18:00,
2013-03-29 10:23:00,43.1,32.1,30.26,SSW,209,1.0,2.0,65,0.00,,,0.00,Wunderground v.1.15,2013-03-29 15:23:00,
2013-03-29 10:28:00,43.5,32.1,30.26,SSW,213,2.0,2.0,64,0.00,,,0.00,Wunderground v.1.15,2013-03-29 15:28:00,
2013-03-29 10:33:00,43.6,31.8,30.26,ESE,115,1.0,5.0,63,0.00,,,0.00,Wunderground v.1.15,2013-03-29 15:33:00,
2013-03-29 10:38:00,43.2,31.8,30.26,SSW,201,2.0,6.0,64,0.00,,,0.00,Wunderground v.1.15,2013-03-29 15:38:00,
2013-03-29 10:43:00,43.3,31.9,30.26,NNW,336,2.0,3.0,64,0.00,,,0.00,Wunderground v.1.15,2013-03-29 15:43:00,
2013-03-29 10:49:00,43.3,31.9,30.26,SSE,166,1.0,4.0,64,0.00,,,0.00,Wunderground v.1.15,2013-03-29 15:49:00,
2013-03-29 10:55:00,43.5,32.1,30.25,SSW,196,2.0,2.0,64,0.00,,,0.00,Wunderground v.1.15,2013-03-29 15:55:00,
2013-03-29 11:00:00,44.0,32.6,30.25,SSW,207,1.0,1.0,64,0.00,,,0.00,Wunderground v.1.15,2013-03-29 16:00:00,
2013-03-29 11:06:00,44.5,32.3,30.25,SSW,204,1.0,3.0,62,0.00,,,0.00,Wunderground v.1.15,2013-03-29 16:06:00,
2013-03-29 11:12:00,44.7,32.5,30.25,East,99,1.0,4.0,62,0.00,,,0.00,Wunderground v.1.15,2013-03-29 16:12:00,
2013-03-29 11:17:00,44.3,32.1,30.25,East,92,2.0,4.0,62,0.00,,,0.00,Wunderground v.1.15,2013-03-29 16:17:00,
2013-03-29 11:22:00,44.7,32.9,30.25,SW,233,2.0,2.0,63,0.00,,,0.00,Wunderground v.1.15,2013-03-29 16:22:00,
2013-03-29 11:27:00,45.5,32.8,30.25,SSE,155,1.0,3.0,61,0.00,,,0.00,Wunderground v.1.15,2013-03-29 16:27:00,
2013-03-29 11:33:00,45.9,33.2,30.24,East,95,2.0,3.0,61,0.00,,,0.00,Wunderground v.1.15,2013-03-29 16:33:00,
2013-03-29 11:38:00,46.3,33.2,30.24,SSE,168,2.0,3.0,60,0.00,,,0.00,Wunderground v.1.15,2013-03-29 16:38:00,
2013-03-29 11:44:00,46.4,32.8,30.24,SSE,164,2.0,5.0,59,0.00,,,0.00,Wunderground v.1.15,2013-03-29 16:44:00,
2013-03-29 11:49:00,46.4,32.8,30.24,South,175,2.0,5.0,59,0.00,,,0.00,Wunderground v.1.15,2013-03-29 16:49:00,
2013-03-29 11:54:00,46.8,33.2,30.24,East,92,2.0,2.0,59,0.00,,,0.00,Wunderground v.1.15,2013-03-29 16:54:00,
2013-03-29 11:59:00,46.9,33.3,30.24,SSW,194,2.0,5.0,59,0.00,,,0.00,Wunderground v.1.15,2013-03-29 16:59:00,
2013-03-29 12:05:00,46.9,33.3,30.24,SW,229,2.0,3.0,59,0.00,,,0.00,Wunderground v.1.15,2013-03-29 17:05:00,
2013-03-29 12:10:00,47.4,33.8,30.23,South,175,1.0,2.0,59,0.00,,,0.00,Wunderground v.1.15,2013-03-29 17:10:00,
2013-03-29 12:16:00,47.7,34.1,30.23,ESE,114,2.0,4.0,59,0.00,,,0.00,Wunderground v.1.15,2013-03-29 17:16:00,
2013-03-29 12:22:00,48.1,34.0,30.23,SSE,161,2.0,2.0,58,0.00,,,0.00,Wunderground v.1.15,2013-03-29 17:22:00,
2013-03-29 12:27:00,48.7,33.7,30.23,SSE,167,2.0,4.0,56,0.00,,,0.00,Wunderground v.1.15,2013-03-29 17:27:00,
2013-03-29 12:33:00,48.7,33.7,30.23,SSE,161,2.0,2.0,56,0.00,,,0.00,Wunderground v.1.15,2013-03-29 17:33:00,
2013-03-29 12:38:00,48.5,33.9,30.23,SSW,202,2.0,3.0,57,0.00,,,0.00,Wunderground v.1.15,2013-03-29 17:38:00,
2013-03-29 12:44:00,48.4,33.9,30.23,South,187,3.0,3.0,57,0.00,,,0.00,Wunderground v.1.15,2013-03-29 17:44:00,
2013-03-29 12:49:00,48.7,34.1,30.23,South,188,3.0,3.0,57,0.00,,,0.00,Wunderground v.1.15,2013-03-29 17:49:00,
2013-03-29 12:55:00,49.4,34.3,30.23,South,171,2.0,4.0,56,0.00,,,0.00,Wunderground v.1.15,2013-03-29 17:55:00,
2013-03-29 13:00:00,49.6,34.1,30.23,ENE,62,2.0,2.0,55,0.00,,,0.00,Wunderground v.1.15,2013-03-29 18:00:00,
2013-03-29 13:07:00,49.5,34.4,30.22,South,172,2.0,3.0,56,0.00,,,0.00,Wunderground v.1.15,2013-03-29 18:07:00,
2013-03-29 13:12:00,50.2,34.2,30.22,ENE,73,2.0,3.0,54,0.00,,,0.00,Wunderground v.1.15,2013-03-29 18:12:00,
2013-03-29 13:18:00,50.5,34.5,30.22,ESE,103,2.0,7.0,54,0.00,,,0.00,Wunderground v.1.15,2013-03-29 18:18:00,
2013-03-29 13:24:00,50.3,34.3,30.22,South,182,3.0,5.0,54,0.00,,,0.00,Wunderground v.1.15,2013-03-29 18:24:00,
2013-03-29 13:29:00,50.9,34.4,30.21,SW,227,2.0,5.0,53,0.00,,,0.00,Wunderground v.1.15,2013-03-29 18:29:00,
2013-03-29 13:35:00,51.2,34.2,30.21,ESE,111,2.0,3.0,52,0.00,,,0.00,Wunderground v.1.15,2013-03-29 18:35:00,
2013-03-29 13:41:00,51.3,34.7,30.21,SSW,192,3.0,4.0,53,0.00,,,0.00,Wunderground v.1.15,2013-03-29 18:41:00,
2013-03-29 13:46:00,51.3,34.3,30.21,ESE,114,2.0,4.0,52,0.00,,,0.00,Wunderground v.1.15,2013-03-29 18:46:00,
2013-03-29 13:51:00,51.4,34.3,30.21,NNE,14,2.0,4.0,52,0.00,,,0.00,Wunderground v.1.15,2013-03-29 18:51:00,
2013-03-29 13:57:00,51.2,34.2,30.20,SW,220,3.0,4.0,52,0.00,,,0.00,Wunderground v.1.15,2013-03-29 18:57:00,
2013-03-29 14:02:00,51.6,34.5,30.20,NNE,16,2.0,3.0,52,0.00,,,0.00,Wunderground v.1.15,2013-03-29 19:02:00,
2013-03-29 14:07:00,51.6,34.0,30.20,SSW,202,2.0,3.0,51,0.00,,,0.00,Wunderground v.1.15,2013-03-29 19:07:00,
2013-03-29 14:13:00,52.1,34.5,30.20,ESE,102,2.0,4.0,51,0.00,,,0.00,Wunderground v.1.15,2013-03-29 19:13:00,
2013-03-29 14:19:00,52.3,34.7,30.19,SSW,210,2.0,4.0,51,0.00,,,0.00,Wunderground v.1.15,2013-03-29 19:19:00,
2013-03-29 14:25:00,52.2,34.6,30.19,South,185,3.0,4.0,51,0.00,,,0.00,Wunderground v.1.15,2013-03-29 19:25:00,
2013-03-29 14:30:00,51.5,34.0,30.19,SSW,206,2.0,2.0,51,0.00,,,0.00,Wunderground v.1.15,2013-03-29 19:30:00,
2013-03-29 14:36:00,50.9,33.9,30.19,South,175,1.0,3.0,52,0.00,,,0.00,Wunderground v.1.15,2013-03-29 19:36:00,
2013-03-29 14:42:00,51.2,34.2,30.18,East,98,2.0,4.0,52,0.00,,,0.00,Wunderground v.1.15,2013-03-29 19:42:00,
2013-03-29 14:48:00,50.9,33.9,30.18,NE,45,3.0,4.0,52,0.00,,,0.00,Wunderground v.1.15,2013-03-29 19:48:00,
2013-03-29 14:53:00,51.6,34.0,30.18,ESE,109,2.0,4.0,51,0.00,,,0.00,Wunderground v.1.15,2013-03-29 19:53:00,
2013-03-29 14:58:00,51.7,34.1,30.18,NE,54,2.0,4.0,51,0.00,,,0.00,Wunderground v.1.15,2013-03-29 19:58:00,
2013-03-29 15:04:00,51.3,33.8,30.18,SE,131,2.0,3.0,51,0.00,,,0.00,Wunderground v.1.15,2013-03-29 20:04:00,
2013-03-29 15:09:00,51.4,33.9,30.17,ESE,109,2.0,4.0,51,0.00,,,0.00,Wunderground v.1.15,2013-03-29 20:09:00,
2013-03-29 15:14:00,52.1,34.0,30.17,East,89,2.0,5.0,50,0.00,,,0.00,Wunderground v.1.15,2013-03-29 20:14:00,
2013-03-29 15:19:00,52.0,34.4,30.17,SSW,206,2.0,5.0,51,0.00,,,0.00,Wunderground v.1.15,2013-03-29 20:19:00,
2013-03-29 15:25:00,52.4,34.3,30.17,SSW,196,2.0,4.0,50,0.00,,,0.00,Wunderground v.1.15,2013-03-29 20:25:00,
2013-03-29 15:31:00,52.1,34.0,30.17,SW,233,2.0,2.0,50,0.00,,,0.00,Wunderground v.1.15,2013-03-29 20:31:00,
2013-03-29 15:37:00,52.1,34.0,30.16,SSW,202,2.0,4.0,50,0.00,,,0.00,Wunderground v.1.15,2013-03-29 20:37:00,
2013-03-29 15:42:00,52.5,33.9,30.16,SSE,164,1.0,3.0,49,0.00,,,0.00,Wunderground v.1.15,2013-03-29 20:42:00,
2013-03-29 15:47:00,52.7,34.1,30.16,West,263,2.0,3.0,49,0.00,,,0.00,Wunderground v.1.15,2013-03-29 20:47:00,
2013-03-29 15:53:00,52.1,33.5,30.16,SSE,149,2.0,4.0,49,0.00,,,0.00,Wunderground v.1.15,2013-03-29 20:53:00,
2013-03-29 15:59:00,52.3,34.2,30.16,SSE,161,2.0,4.0,50,0.00,,,0.00,Wunderground v.1.15,2013-03-29 20:59:00,
2013-03-29 16:05:00,52.6,34.0,30.15,ESE,114,1.0,4.0,49,0.00,,,0.00,Wunderground v.1.15,2013-03-29 21:05:00,
2013-03-29 16:10:00,52.9,34.2,30.15,SSW,196,1.0,1.0,49,0.00,,,0.00,Wunderground v.1.15,2013-03-29 21:10:00,
2013-03-29 16:16:00,53.8,34.0,30.15,ESE,113,1.0,3.0,47,0.00,,,0.00,Wunderground v.1.15,2013-03-29 21:16:00,
2013-03-29 16:22:00,53.3,34.1,30.15,SSE,147,1.0,3.0,48,0.00,,,0.00,Wunderground v.1.15,2013-03-29 21:22:00,
2013-03-29 16:28:00,53.1,33.9,30.14,SSE,149,1.0,3.0,48,0.00,,,0.00,Wunderground v.1.15,2013-03-29 21:28:00,
2013-03-29 16:33:00,53.0,33.8,30.14,East,95,1.0,4.0,48,0.00,,,0.00,Wunderground v.1.15,2013-03-29 21:33:00,
2013-03-29 16:38:00,52.9,33.7,30.14,South,172,1.0,4.0,48,0.00,,,0.00,Wunderground v.1.15,2013-03-29 21:38:00,
2013-03-29 16:44:00,52.8,33.6,30.14,SSE,154,2.0,3.0,48,0.00,,,0.00,Wunderground v.1.15,2013-03-29 21:44:00,
2013-03-29 16:49:00,52.8,33.6,30.14,SE,140,1.0,3.0,48,0.00,,,0.00,Wunderground v.1.15,2013-03-29 21:49:00,
2013-03-29 16:55:00,52.3,33.7,30.14,South,175,1.0,3.0,49,0.00,,,0.00,Wunderground v.1.15,2013-03-29 21:55:00,
2013-03-29 17:00:00,52.1,33.5,30.14,East,85,1.0,1.0,49,0.00,,,0.00,Wunderground v.1.15,2013-03-29 22:00:00,
2013-03-29 17:07:00,51.8,33.7,30.13,NE,34,1.0,5.0,50,0.00,,,0.00,Wunderground v.1.15,2013-03-29 22:07:00,
2013-03-29 17:13:00,51.8,33.7,30.14,NNW,336,1.0,3.0,50,0.00,,,0.00,Wunderground v.1.15,2013-03-29 22:13:00,
2013-03-29 17:18:00,51.7,33.6,30.14,SSW,192,1.0,3.0,50,0.00,,,0.00,Wunderground v.1.15,2013-03-29 22:18:00,
2013-03-29 17:24:00,51.5,33.5,30.14,SE,126,1.0,5.0,50,0.00,,,0.00,Wunderground v.1.15,2013-03-29 22:24:00,
2013-03-29 17:29:00,51.2,33.7,30.14,SSW,209,2.0,5.0,51,0.00,,,0.00,Wunderground v.1.15,2013-03-29 22:29:00,
2013-03-29 17:35:00,51.1,34.1,30.14,ESE,119,2.0,4.0,52,0.00,,,0.00,Wunderground v.1.15,2013-03-29 22:35:00,
2013-03-29 17:40:00,50.8,33.8,30.13,East,99,2.0,2.0,52,0.00,,,0.00,Wunderground v.1.15,2013-03-29 22:40:00,
2013-03-29 17:46:00,50.9,33.9,30.14,South,191,2.0,3.0,52,0.00,,,0.00,Wunderground v.1.15,2013-03-29 22:46:00,
2013-03-29 17:52:00,50.3,33.8,30.14,SSW,199,2.0,2.0,53,0.00,,,0.00,Wunderground v.1.15,2013-03-29 22:52:00,
2013-03-29 17:58:00,50.0,34.0,30.14,NE,47,2.0,2.0,54,0.00,,,0.00,Wunderground v.1.15,2013-03-29 22:58:00,
2013-03-29 18:03:00,49.7,33.7,30.14,ESE,114,1.0,2.0,54,0.00,,,0.00,Wunderground v.1.15,2013-03-29 23:03:00,
2013-03-29 18:09:00,49.1,34.1,30.14,South,175,1.0,2.0,56,0.00,,,0.00,Wunderground v.1.15,2013-03-29 23:09:00,
2013-03-29 18:14:00,48.5,33.9,30.14,SSE,148,1.0,4.0,57,0.00,,,0.00,Wunderground v.1.15,2013-03-29 23:14:00,
2013-03-29 18:19:00,48.0,33.9,30.14,SSE,154,1.0,4.0,58,0.00,,,0.00,Wunderground v.1.15,2013-03-29 23:19:00,
2013-03-29 18:25:00,47.3,33.7,30.14,SW,220,1.0,1.0,59,0.00,,,0.00,Wunderground v.1.15,2013-03-29 23:25:00,
2013-03-29 18:31:00,46.5,33.8,30.13,South,180,1.0,2.0,61,0.00,,,0.00,Wunderground v.1.15,2013-03-29 23:31:00,
2013-03-29 18:37:00,45.9,33.6,30.13,NE,47,1.0,3.0,62,0.00,,,0.00,Wunderground v.1.15,2013-03-29 23:37:00,
2013-03-29 18:43:00,45.3,33.4,30.13,South,185,1.0,1.0,63,0.00,,,0.00,Wunderground v.1.15,2013-03-29 23:43:00,
2013-03-29 18:48:00,45.1,33.6,30.13,South,189,0.0,2.0,64,0.00,,,0.00,Wunderground v.1.15,2013-03-29 23:48:00,
2013-03-29 18:53:00,44.8,33.4,30.13,SSW,206,0.0,1.0,64,0.00,,,0.00,Wunderground v.1.15,2013-03-29 23:53:00,
2013-03-29 18:58:00,44.5,33.5,30.13,SSW,195,0.0,1.0,65,0.00,,,0.00,Wunderground v.1.15,2013-03-29 23:58:00,
2013-03-29 19:03:00,44.3,33.3,30.13,South,177,0.0,1.0,65,0.00,,,0.00,Wunderground v.1.15,2013-03-30 00:03:00,
2013-03-29 19:08:00,44.0,33.4,30.13,East,93,0.0,1.0,66,0.00,,,0.00,Wunderground v.1.15,2013-03-30 00:08:00,
2013-03-29 19:14:00,43.6,33.0,30.12,East,92,0.0,0.0,66,0.00,,,0.00,Wunderground v.1.15,2013-03-30 00:14:00,
2013-03-29 19:19:00,43.1,33.3,30.12,East,89,0.0,1.0,68,0.00,,,0.00,Wunderground v.1.15,2013-03-30 00:19:00,
2013-03-29 19:25:00,42.7,33.2,30.12,East,89,0.0,0.0,69,0.00,,,0.00,Wunderground v.1.15,2013-03-30 00:25:00,
2013-03-29 19:30:00,42.4,32.9,30.12,SSW,195,0.0,0.0,69,0.00,,,0.00,Wunderground v.1.15,2013-03-30 00:30:00,
2013-03-29 19:35:00,42.2,33.1,30.12,East,87,0.0,2.0,70,0.00,,,0.00,Wunderground v.1.15,2013-03-30 00:35:00,
2013-03-29 19:41:00,42.1,33.0,30.12,South,184,0.0,0.0,70,0.00,,,0.00,Wunderground v.1.15,2013-03-30 00:41:00,
2013-03-29 19:47:00,41.9,33.2,30.11,South,182,0.0,0.0,71,0.00,,,0.00,Wunderground v.1.15,2013-03-30 00:47:00,
2013-03-29 19:52:00,41.5,32.8,30.11,West,260,0.0,0.0,71,0.00,,,0.00,Wunderground v.1.15,2013-03-30 00:52:00,
2013-03-29 19:58:00,41.2,32.9,30.11,NNE,30,0.0,1.0,72,0.00,,,0.00,Wunderground v.1.15,2013-03-30 00:58:00,
2013-03-29 20:04:00,41.0,33.0,30.11,NNE,30,0.0,0.0,73,0.00,,,0.00,Wunderground v.1.15,2013-03-30 01:04:00,
2013-03-29 20:09:00,40.9,32.9,30.11,NNE,13,0.0,0.0,73,0.00,,,0.00,Wunderground v.1.15,2013-03-30 01:09:00,
2013-03-29 20:15:00,40.7,33.1,30.10,SSW,207,0.0,1.0,74,0.00,,,0.00,Wunderground v.1.15,2013-03-30 01:15:00,
2013-03-29 20:20:00,40.6,33.0,30.11,SSW,211,0.0,0.0,74,0.00,,,0.00,Wunderground v.1.15,2013-03-30 01:20:00,
2013-03-29 20:25:00,40.5,33.2,30.10,SSW,211,0.0,0.0,75,0.00,,,0.00,Wunderground v.1.15,2013-03-30 01:25:00,
2013-03-29 20:32:00,40.4,33.1,30.10,SW,217,0.0,0.0,75,0.00,,,0.00,Wunderground v.1.15,2013-03-30 01:32:00,
2013-03-29 20:38:00,40.4,33.4,30.10,SW,232,0.0,3.0,76,0.00,,,0.00,Wunderground v.1.15,2013-03-30 01:38:00,
2013-03-29 20:44:00,40.4,33.1,30.10,SW,232,0.0,0.0,75,0.00,,,0.00,Wunderground v.1.15,2013-03-30 01:44:00,
2013-03-29 20:49:00,40.4,33.4,30.10,SW,215,0.0,0.0,76,0.00,,,0.00,Wunderground v.1.15,2013-03-30 01:49:00,
2013-03-29 20:55:00,40.2,33.2,30.10,South,171,0.0,1.0,76,0.00,,,0.00,Wunderground v.1.15,2013-03-30 01:55:00,
2013-03-29 21:00:00,40.1,33.1,30.10,SSW,194,0.0,0.0,76,0.00,,,0.00,Wunderground v.1.15,2013-03-30 02:00:00,
2013-03-29 21:06:00,40.0,33.0,30.10,SSW,195,0.0,0.0,76,0.00,,,0.00,Wunderground v.1.15,2013-03-30 02:06:00,
2013-03-29 21:12:00,39.9,33.3,30.08,ESE,121,0.0,2.0,77,0.00,,,0.00,Wunderground v.1.15,2013-03-30 02:12:00,
2013-03-29 21:18:00,40.2,33.9,30.08,SSE,160,1.0,3.0,78,0.00,,,0.00,Wunderground v.1.15,2013-03-30 02:18:00,
2013-03-29 21:23:00,40.4,34.1,30.09,ESE,111,1.0,1.0,78,0.00,,,0.00,Wunderground v.1.15,2013-03-30 02:23:00,
2013-03-29 21:29:00,40.5,33.9,30.09,NW,308,0.0,2.0,77,0.00,,,0.00,Wunderground v.1.15,2013-03-30 02:29:00,
2013-03-29 21:35:00,40.4,34.1,30.08,NE,38,1.0,1.0,78,0.00,,,0.00,Wunderground v.1.15,2013-03-30 02:35:00,
2013-03-29 21:40:00,40.3,34.0,30.08,NNE,20,0.0,2.0,78,0.00,,,0.00,Wunderground v.1.15,2013-03-30 02:40:00,
2013-03-29 21:46:00,40.2,34.2,30.08,West,268,0.0,2.0,79,0.00,,,0.00,Wunderground v.1.15,2013-03-30 02:46:00,
2013-03-29 21:52:00,40.2,34.5,30.08,SSW,208,1.0,1.0,80,0.00,,,0.00,Wunderground v.1.15,2013-03-30 02:52:00,
2013-03-29 21:57:00,40.3,34.9,30.08,SSE,158,1.0,2.0,81,0.00,,,0.00,Wunderground v.1.15,2013-03-30 02:57:00,
2013-03-29 22:02:00,40.5,35.1,30.08,SW,220,1.0,3.0,81,0.00,,,0.00,Wunderground v.1.15,2013-03-30 03:02:00,
2013-03-29 22:07:00,40.6,35.5,30.08,SW,229,1.0,3.0,82,0.00,,,0.00,Wunderground v.1.15,2013-03-30 03:07:00,
2013-03-29 22:12:00,40.6,35.5,30.08,NE,38,1.0,2.0,82,0.00,,,0.00,Wunderground v.1.15,2013-03-30 03:12:00,
2013-03-29 22:17:00,40.6,35.5,30.08,South,187,1.0,2.0,82,0.00,,,0.00,Wunderground v.1.15,2013-03-30 03:17:00,
2013-03-29 22:23:00,40.3,35.5,30.07,SSW,199,1.0,1.0,83,0.00,,,0.00,Wunderground v.1.15,2013-03-30 03:23:00,
2013-03-29 22:28:00,40.2,35.4,30.07,ENE,58,1.0,2.0,83,0.00,,,0.00,Wunderground v.1.15,2013-03-30 03:28:00,
2013-03-29 22:33:00,40.1,35.7,30.07,ENE,57,1.0,2.0,84,0.00,,,0.00,Wunderground v.1.15,2013-03-30 03:33:00,
2013-03-29 22:39:00,39.9,35.8,30.06,South,173,1.0,3.0,85,0.00,,,0.00,Wunderground v.1.15,2013-03-30 03:39:00,
2013-03-29 22:45:00,39.9,35.8,30.06,North,356,2.0,2.0,85,0.00,,,0.00,Wunderground v.1.15,2013-03-30 03:45:00,
2013-03-29 22:50:00,40.0,35.9,30.06,South,181,2.0,2.0,85,0.00,,,0.00,Wunderground v.1.15,2013-03-30 03:50:00,
2013-03-29 22:55:00,39.9,36.1,30.06,SW,215,2.0,4.0,86,0.00,,,0.00,Wunderground v.1.15,2013-03-30 03:55:00,
2013-03-29 23:00:00,39.9,36.1,30.06,SSW,195,1.0,1.0,86,0.00,,,0.00,Wunderground v.1.15,2013-03-30 04:00:00,
2013-03-29 23:02:00,39.8,36.0,30.05,SSW,198,1.0,2.0,86,0.00,,,0.00,Wunderground v.1.15,2013-03-30 04:02:00,
2013-03-29 23:03:00,39.8,36.0,30.05,SSW,192,1.0,2.0,86,0.00,,,0.00,Wunderground v.1.15,2013-03-30 04:03:00,
2013-03-29 23:06:00,39.8,36.0,30.05,SSE,159,1.0,3.0,86,0.00,,,0.00,Wunderground v.1.15,2013-03-30 04:06:00,
2013-03-29 23:12:00,39.8,36.2,30.05,SSE,151,1.0,3.0,87,0.00,,,0.00,Wunderground v.1.15,2013-03-30 04:12:00,
2013-03-29 23:17:00,39.7,36.1,30.05,SW,235,1.0,3.0,87,0.00,,,0.00,Wunderground v.1.15,2013-03-30 04:17:00,
2013-03-29 23:22:00,39.7,36.1,30.05,ESE,114,1.0,1.0,87,0.00,,,0.00,Wunderground v.1.15,2013-03-30 04:22:00,
2013-03-29 23:28:00,39.7,36.4,30.04,SSE,147,2.0,5.0,88,0.00,,,0.00,Wunderground v.1.15,2013-03-30 04:28:00,
2013-03-29 23:34:00,39.8,36.5,30.04,SSE,167,1.0,3.0,88,0.00,,,0.00,Wunderground v.1.15,2013-03-30 04:34:00,
2013-03-29 23:40:00,39.7,36.1,30.04,ESE,123,1.0,1.0,87,0.00,,,0.00,Wunderground v.1.15,2013-03-30 04:40:00,
2013-03-29 23:45:00,39.6,36.3,30.04,SW,223,0.0,1.0,88,0.00,,,0.00,Wunderground v.1.15,2013-03-30 04:45:00,
2013-03-29 23:51:00,39.7,36.7,30.03,SW,218,0.0,1.0,89,0.00,,,0.00,Wunderground v.1.15,2013-03-30 04:51:00,
2013-03-29 23:57:00,39.8,36.8,30.03,SSW,209,1.0,3.0,89,0.00,,,0.00,Wunderground v.1.15,2013-03-30 04:57:00,